| time (UTC) | temp C | wind direction | speed KPH | gust KPH | rain 1hr cm | rain 24hr cm | rain mn cm | humidity % | barometer mb |
| 20260906011558 | 29 | 277 | 1.6 | 9.7 | 0.00 | 0.03 | 0.03 | 24 | 1011.1 |
| 20260906004553 | 29 | 223 | 3.2 | 12.9 | 0.00 | 0.03 | 0.03 | 37 | 1011.3 |
| 20260906003045 | 29 | 252 | 3.2 | 12.9 | 0.00 | 0.03 | 0.03 | 39 | 1011.1 |
| 20260906001538 | 29 | 298 | 3.2 | 9.7 | 0.00 | 0.03 | 0.03 | 39 | 1011.1 |
| 20260906000034 | 29 | 227 | 4.8 | 0.0 | 0.00 | 0.00 | 0.03 | 39 | 1011.1 |
| 20260905234530 | 30 | 260 | 0.0 | 14.5 | 0.00 | 0.03 | 0.03 | 43 | 1011.1 |
| 20260905233031 | 30 | 249 | 3.2 | 12.9 | 0.00 | 0.03 | 0.03 | 48 | 1011.0 |
| 20260905231520 | 30 | 221 | 1.6 | 9.7 | 0.00 | 0.03 | 0.03 | 50 | 1011.0 |
| 20260905230016 | 31 | 207 | 3.2 | 11.3 | 0.00 | 0.03 | 0.03 | 54 | 1011.1 |
| 20260905224511 | 31 | 201 | 4.8 | 12.9 | 0.00 | 0.03 | 0.03 | 55 | 1011.2 |
| 20260905223025 | 31 | 216 | 3.2 | 12.9 | 0.00 | 0.03 | 0.03 | 56 | 1011.1 |
| 20260905221507 | 31 | 240 | 4.8 | 14.5 | 0.00 | 0.03 | 0.03 | 55 | 1011.3 |
| 20260905220104 | 31 | 238 | 1.6 | 9.7 | 0.00 | 0.03 | 0.03 | 57 | 1011.2 |
| 20260905214554 | 31 | 224 | 3.2 | 11.3 | 0.00 | 0.03 | 0.03 | 58 | 1011.4 |
| 20260905213049 | 31 | 256 | 6.4 | 14.5 | 0.00 | 0.03 | 0.03 | 60 | 1011.6 |
| 20260905211548 | 31 | 278 | 3.2 | 12.9 | 0.00 | 0.03 | 0.03 | 58 | 1011.7 |
| 20260905210057 | 31 | 246 | 4.8 | 14.5 | 0.00 | 0.03 | 0.03 | 59 | 1011.5 |
| 20260905204537 | 31 | 233 | 3.2 | 16.1 | 0.00 | 0.03 | 0.03 | 60 | 1011.5 |
| 20260905203034 | 31 | 264 | 3.2 | 16.1 | 0.00 | 0.03 | 0.03 | 59 | 1011.6 |
| 20260905201532 | 31 | 251 | 4.8 | 14.5 | 0.00 | 0.03 | 0.03 | 59 | 1011.5 |
| 20260905200030 | 31 | 300 | 6.4 | 17.7 | 0.00 | 0.03 | 0.03 | 60 | 1011.9 |
| 20260905194517 | 32 | 214 | 6.4 | 16.1 | 0.00 | 0.03 | 0.03 | 61 | 1012.0 |
| 20260905193013 | 32 | 214 | 0.0 | 12.9 | 0.00 | 0.03 | 0.03 | 61 | 1012.4 |
| 20260905191509 | 32 | 212 | 4.8 | 16.1 | 0.00 | 0.03 | 0.03 | 61 | 1012.5 |
| 20260905190004 | 32 | 226 | 1.6 | 12.9 | 0.00 | 0.03 | 0.03 | 60 | 1012.7 |
| 20260905184610 | 32 | 236 | 4.8 | 14.5 | 0.00 | 0.03 | 0.03 | 61 | 1012.7 |
| 20260905183055 | 32 | 238 | 3.2 | 12.9 | 0.00 | 0.03 | 0.03 | 61 | 1013.1 |
| 20260905181550 | 32 | 206 | 4.8 | 14.5 | 0.00 | 0.03 | 0.03 | 62 | 1013.3 |
| 20260905180046 | 32 | 229 | 1.6 | 11.3 | 0.00 | 0.03 | 0.03 | 61 | 1013.3 |
| 20260905174540 | 32 | 248 | 1.6 | 11.3 | 0.00 | 0.05 | 0.03 | 61 | 1013.4 |
| 20260905173038 | 32 | 233 | 1.6 | 9.7 | 0.00 | 0.05 | 0.03 | 61 | 1013.5 |
| 20260905171542 | 32 | 228 | 1.6 | 9.7 | 0.00 | 0.05 | 0.03 | 60 | 1013.6 |
| 20260905170031 | 33 | 241 | 0.0 | 8.0 | 0.00 | 0.05 | 0.03 | 61 | 1013.7 |
| 20260905164525 | 32 | 226 | 1.6 | 8.0 | 0.00 | 0.10 | 0.03 | 54 | 1013.7 |
| 20260905163021 | 31 | 356 | 0.0 | 11.3 | 0.00 | 0.10 | 0.03 | 58 | 1013.8 |
| 20260905161520 | 32 | 141 | 0.0 | 11.3 | 0.00 | 0.10 | 0.03 | 58 | 1014.0 |
| 20260905160025 | 32 | 240 | 1.6 | 9.7 | 0.00 | 0.10 | 0.03 | 56 | 1013.9 |
| 20260905154507 | 32 | 143 | 0.0 | 6.4 | 0.00 | 0.10 | 0.03 | 58 | 1013.8 |
| 20260905153004 | 32 | 224 | 0.0 | 11.3 | 0.00 | 0.10 | 0.03 | 58 | 1013.7 |
| 20260905151559 | 32 | 194 | 0.0 | 8.0 | 0.00 | 0.10 | 0.03 | 54 | 1013.7 |
| 20260905150054 | 31 | 212 | 0.0 | 4.8 | 0.00 | 0.10 | 0.03 | 51 | 1013.7 |
| 20260905144553 | 31 | 335 | 0.0 | 1.6 | 0.00 | 0.10 | 0.03 | 20 | 1013.7 |
| 20260905143045 | 30 | 110 | 0.0 | 3.2 | 0.00 | 0.10 | 0.03 | 9 | 1013.8 |
| 20260905141541 | 30 | 38 | 0.0 | 1.6 | 0.00 | 0.10 | 0.03 | 17 | 1013.8 |
| 20260905140039 | 31 | 278 | 0.0 | 0.0 | 0.00 | 0.10 | 0.03 | 6 | 1013.6 |
| 20260905134531 | 29 | 8 | 0.0 | 1.6 | 0.00 | 0.10 | 0.03 | 1 | 1013.5 |
| 20260905133026 | 28 | 330 | 0.0 | 1.6 | 0.00 | 0.10 | 0.03 | 1 | 1013.4 |
| 20260905131522 | 28 | 21 | 0.0 | 0.0 | 0.00 | 0.10 | 0.03 | 1 | 1013.5 |
| 20260905130020 | 27 | 325 | 0.0 | 8.0 | 0.00 | 0.10 | 0.03 | 1 | 1013.5 |
| 20260905124517 | 27 | 62 | 0.0 | 4.8 | 0.00 | 0.10 | 0.03 | 1 | 1013.3 |
| 20260905123008 | 27 | 51 | 0.0 | 1.6 | 0.00 | 0.10 | 0.03 | 1 | 1013.2 |
| 20260905121506 | 27 | 23 | 0.0 | 0.0 | 0.00 | 0.10 | 0.03 | 1013.1 | |
| 20260905120001 | -17 | 0.0 | 0.0 | 0.00 | 0.10 | 0.03 | 1013.0 | ||
| 20260905114609 | -17 | 0.0 | 0.0 | 0.00 | 0.10 | 0.03 | 1012.9 | ||
| 20260905113052 | -17 | 0.0 | 0.0 | 0.00 | 0.10 | 0.03 | 1012.9 | ||
| 20260905111552 | -17 | 0.0 | 0.0 | 0.00 | 0.10 | 0.03 | 1012.8 | ||
| 20260905110043 | -17 | 0.0 | 0.0 | 0.00 | 0.10 | 0.03 | 1012.6 | ||
| 20260905104545 | -17 | 0.0 | 0.0 | 0.00 | 0.10 | 0.03 | 1012.6 | ||
| 20260905103037 | -17 | 0.0 | 0.0 | 0.00 | 0.10 | 0.03 | 1012.5 | ||
| 20260905101532 | -17 | 0.0 | 0.0 | 0.00 | 0.10 | 0.03 | 1012.5 | ||
| 20260905100031 | -17 | 0.0 | 0.0 | 0.00 | 0.10 | 0.03 | 1012.3 | ||
| 20260905094525 | -17 | 0.0 | 0.0 | 0.00 | 0.10 | 0.03 | 1012.3 | ||
| 20260905093020 | -17 | 0.0 | 0.0 | 0.00 | 0.10 | 0.03 | 1012.5 | ||
| 20260905091516 | -17 | 0.0 | 0.0 | 0.00 | 0.10 | 0.03 | 1012.4 | ||
| 20260905090018 | -67 | 239 | 1.6 | 8.0 | 0.03 | 0.10 | 0.03 | 1 | 1012.4 |
| 20260905084512 | 28 | 224 | 0.0 | 6.4 | 0.03 | 0.10 | 0.03 | 1 | 1012.5 |
| 20260905083001 | 28 | 246 | 1.6 | 8.0 | 0.03 | 0.10 | 0.03 | 1 | 1012.3 |
| 20260905081611 | 28 | 211 | 0.0 | 12.9 | 0.03 | 0.10 | 0.03 | 1 | 1012.1 |
| 20260905080058 | 28 | 160 | 3.2 | 9.7 | 0.00 | 0.08 | 0.00 | 1 | 1012.2 |
| 20260905074555 | 28 | 216 | 0.0 | 4.8 | 0.00 | 0.08 | 0.00 | 6 | 1012.3 |
| 20260905073047 | 28 | 216 | 0.0 | 8.0 | 0.00 | 0.08 | 0.00 | 1 | 1012.3 |
| 20260905071546 | 28 | 163 | 0.0 | 8.0 | 0.00 | 0.08 | 0.00 | 1 | 1012.2 |
| 20260905070044 | 28 | 206 | 0.0 | 6.4 | 0.00 | 0.08 | 0.00 | 1 | 1012.1 |
| 20260905064531 | 28 | 222 | 1.6 | 11.3 | 0.00 | 0.08 | 0.00 | 1 | 1012.0 |
| 20260905063026 | 28 | 198 | 0.0 | 8.0 | 0.00 | 0.08 | 0.00 | 1 | 1012.0 |
| 20260905061529 | 28 | 218 | 1.6 | 8.0 | 0.00 | 0.08 | 0.00 | 1 | 1012.3 |
| 20260905060020 | 28 | 157 | 0.0 | 9.7 | 0.00 | 0.08 | 0.00 | 1 | 1012.3 |
| 20260905054513 | 28 | 182 | 3.2 | 8.0 | 0.00 | 0.08 | 0.00 | 1 | 1012.3 |
| 20260905053018 | 28 | 167 | 1.6 | 6.4 | 0.00 | 0.08 | 0.00 | 1 | 1012.4 |
| 20260905051504 | 28 | 214 | 0.0 | 3.2 | 0.00 | 0.08 | 0.00 | 1 | 1012.7 |
| 20260905050100 | 28 | 209 | 0.0 | 8.0 | 0.00 | 0.08 | 0.00 | 1 | 1012.7 |
| 20260905044559 | 28 | 168 | 0.0 | 6.4 | 0.00 | 0.79 | 0.08 | 1 | 1012.9 |
| 20260905043118 | 28 | 168 | 1.6 | 8.0 | 0.00 | 0.79 | 0.08 | 1 | 1013.1 |
| 20260905041559 | 28 | 116 | 0.0 | 8.0 | 0.00 | 0.79 | 0.08 | 2 | 1013.1 |
| 20260905040117 | 28 | 141 | 0.0 | 8.0 | 0.00 | 0.79 | 0.08 | 1 | 1013.1 |
| 20260905034558 | 28 | 136 | 1.6 | 8.0 | 0.00 | 0.81 | 0.08 | 1 | 1013.3 |
| 20260905033056 | 28 | 142 | 0.0 | 3.2 | 0.00 | 0.81 | 0.08 | 1 | 1013.3 |
| 20260905031654 | 28 | 124 | 0.0 | 8.0 | 0.00 | 0.81 | 0.08 | 1 | 1013.5 |
| 20260905030054 | 28 | 143 | 0.0 | 6.4 | 0.00 | 0.81 | 0.08 | 1 | 1013.5 |
| 20260905024553 | 28 | 150 | 0.0 | 1.6 | 0.00 | 0.81 | 0.08 | 1 | 1013.7 |
| 20260905023058 | 28 | 152 | 0.0 | 6.4 | 0.00 | 0.81 | 0.08 | 1 | 1013.6 |
| 20260905021552 | 28 | 171 | 0.0 | 6.4 | 0.00 | 0.81 | 0.08 | 1 | 1013.5 |
| 20260905020051 | 28 | 137 | 0.0 | 1.6 | 0.00 | 0.81 | 0.08 | 1 | 1013.4 |
| 20260905014550 | 28 | 125 | 0.0 | 4.8 | 0.00 | 0.81 | 0.08 | 1 | 1013.2 |
| 20260905013054 | 28 | 174 | 0.0 | 1.6 | 0.00 | 0.81 | 0.08 | 1 | 1013.1 |